Back to catalog

COSMOS 2561

AliveNavigationSSO
NORAD 54109·PAYLOAD·🇷🇺 Russia

Launched Oct 21, 2022 from Plesetsk Cosmodrome

Loading…

Next Passes (next 24 hours)

TLE

FreshSource: Space-Track

Epoch: Sep 14, 2026, 05:24 UTC

1 54109U 22137A   26257.22540162  .00012156  00000-0  19068-3 0  9990
2 54109  96.9080 312.9771 0011121  61.3128 298.9243 15.53748059220165

Track COSMOS 2561 in real time with AllMySat

Download on the App Store